Weather in Kurasovka

Russia / Belgorod Oblast     51°03′58″N   36°13′01″E
В апреле 2022 года жителям России запретили посещать сайт meteo.paraplan.net по решению Генеральной прокуратуры. Аудитория сайта уменьшилась в 10 раз. Владельцы сайта не видят смысла в поддержке погодного сервера в таких условиях. Сайт будет закрыт в октябре.
temp.,
°C
wind,
m/s
gust,
m/s
humid.,
%
clouds,
%
prec.,
mm/h
press.,
hPa
HPBL,
m
29 september, thu
thu2900:00+13wsw358097 0.0 1005106
03:00+11wsw33925 0.0 100637
06:00+10wsw349425 0.0 100884
09:00+13wsw35837 0.0 1009289
12:00+17wsw346774 0.0 10101012
15:00+18sw3459100 0.0 10111165
18:00+15sw2273100 0.0 101211
21:00+13se3378100 0.0 101340
30 september, fri
fri3000:00+13se3784100 0.0 1014116
03:00+13se4985100 0.0 1014165
06:00+14sse4882100 0.0 1014174
09:00+15se4879100 0.1 1015209
12:00+20s51061100 0.0 1015785
15:00+21ssw6957100 0.0 10151266
18:00+17ssw41076100 0.4 1016357
21:00+15s369211 0.4 1017122
1 october, sat
sat100:00+14s2395100 0.0 101753
03:00+14sw2294100 0.0 101713
06:00+13wsw229583 0.0 101711
09:00+16ssw238797 0.0 1018210
12:00+20sw4467100 0.0 1017713
15:00+21sw455759 0.0 1016988
18:00+18ssw3573100 0.0 101587
21:00+15ssw4108979 2.8 1014186
2 october, sun
sun200:00+15sw359292 2.7 101481
03:00+14wsw119423 3.5 101312
06:00+14wsw0092100 0.0 101210
09:00+16se1183100 0.0 1012128
12:00+19se2370100 0.0 1011436
15:00+19ese3574100 0.0 1009151
18:00+18ese4781100 0.3 1007143
21:00+18sse61378100 2.8 1006310
3 october, mon
mon300:00+16sse41183100 0.7 1004296
03:00+15se3690100 1.8 1003157
06:00+15ese81789100 1.5 997642
09:00+15se81788100 1.9 995826
12:00+16se91687100 1.8 9921156
15:00+11sse101591100 4.1 990943
18:00+10ssw111687100 0.1 9951384
21:00+9sw111686100 0.8 10001419